CLH1281 EGCC-EDDF

Flight info

Callsign CLH1281
Flight time N/A
Altitude 37000
Route DESIG L603 DOLAS DCT NAVPI DCT NOLRU DCT DIXAT DIXAT1A
Aircraft CRJ9/M-SDFGIRWY/S

Departure

Time 2026-05-05 18:36
Airport Manchester Airport (EGCC)

Arrival

Time N/A
Airport Frankfurt Main Airport (EDDF)
Time Latitude Longitude Altitude Speed Heading
2026-05-05 18:07 53.36923 -2.28748 253 ft 0 kts 135°
2026-05-05 18:22 53.36938 -2.28773 253 ft 2 kts 135°
2026-05-05 18:22 53.36953 -2.28789 253 ft 4 kts 187°
2026-05-05 18:22 53.36967 -2.28773 253 ft 1 kts 225°
2026-05-05 18:22 53.36958 -2.28788 253 ft 0 kts 225°
2026-05-05 18:25 53.36954 -2.28795 253 ft 2 kts 225°
2026-05-05 18:25 53.36944 -2.28812 253 ft 2 kts 225°
2026-05-05 18:26 53.36930 -2.28834 253 ft 3 kts 225°
2026-05-05 18:26 53.36908 -2.28871 253 ft 10 kts 225°
2026-05-05 18:26 53.36847 -2.28970 253 ft 13 kts 224°
2026-05-05 18:26 53.36771 -2.29038 253 ft 12 kts 188°
2026-05-05 18:27 53.36711 -2.28985 253 ft 9 kts 131°
2026-05-05 18:27 53.36653 -2.28901 253 ft 12 kts 165°
2026-05-05 18:27 53.36589 -2.28803 253 ft 14 kts 120°
2026-05-05 18:27 53.36528 -2.28671 253 ft 14 kts 134°
2026-05-05 18:28 53.36387 -2.28433 253 ft 15 kts 135°
2026-05-05 18:28 53.36321 -2.28394 253 ft 9 kts 167°
2026-05-05 18:28 53.36267 -2.28340 253 ft 12 kts 135°
2026-05-05 18:29 53.36206 -2.28236 253 ft 13 kts 134°
2026-05-05 18:29 53.36144 -2.28130 253 ft 13 kts 135°
2026-05-05 18:29 53.36078 -2.28028 253 ft 13 kts 139°
2026-05-05 18:29 53.36010 -2.27929 253 ft 13 kts 140°
2026-05-05 18:30 53.35936 -2.27855 253 ft 12 kts 170°
2026-05-05 18:30 53.35847 -2.27856 251 ft 14 kts 185°
2026-05-05 18:30 53.35732 -2.27879 244 ft 19 kts 185°
2026-05-05 18:30 53.35606 -2.27941 237 ft 18 kts 226°
2026-05-05 18:31 53.35512 -2.28110 232 ft 21 kts 218°
2026-05-05 18:31 53.35483 -2.28135 232 ft 1 kts 198°
2026-05-05 18:31 53.35421 -2.28157 237 ft 14 kts 188°
2026-05-05 18:31 53.35311 -2.28205 232 ft 23 kts 202°
2026-05-05 18:32 53.35190 -2.28387 228 ft 24 kts 231°
2026-05-05 18:32 53.35080 -2.28613 227 ft 24 kts 231°
2026-05-05 18:32 53.34971 -2.28817 225 ft 24 kts 227°
2026-05-05 18:32 53.34894 -2.28951 221 ft 25 kts 226°
2026-05-05 18:33 53.34807 -2.29063 222 ft 0 kts 194°
2026-05-05 18:34 53.34782 -2.29071 219 ft 10 kts 186°
2026-05-05 18:34 53.34716 -2.29049 222 ft 10 kts 163°
2026-05-05 18:34 53.34670 -2.28979 216 ft 8 kts 95°
2026-05-05 18:35 53.34686 -2.28920 220 ft 1 kts 51°
2026-05-05 18:35 53.34701 -2.28888 220 ft 20 kts 51°
2026-05-05 18:36 53.34945 -2.28382 231 ft 91 kts 51°
2026-05-05 18:36 53.35475 -2.27279 249 ft 148 kts 52°
2026-05-05 18:36 53.36159 -2.25793 636 ft 166 kts 54°
2026-05-05 18:36 53.36806 -2.24262 1546 ft 152 kts 55°
2026-05-05 18:37 53.37417 -2.22742 2166 ft 158 kts 56°
2026-05-05 18:37 53.38003 -2.21227 2834 ft 156 kts 58°
2026-05-05 18:37 53.38615 -2.19601 3228 ft 174 kts 58°
2026-05-05 18:37 53.39228 -2.17865 3828 ft 175 kts 60°
2026-05-05 18:38 53.39770 -2.16080 4569 ft 167 kts 65°
2026-05-05 18:38 53.40207 -2.14344 5078 ft 174 kts 67°